Location: Darlington Observatory
(36.4817°N, 105.8156°W)
Time: 13:20:41
(UTC-06:00)

MOS 1 - Visible Passes

Search period start: 22 July 2014 00:00
Search period end: 01 August 2014 00:00
Orbit: 880 x 892 km, 99.2° (Epoch: 21 July)

Date Brightness Start Highest point End Pass type
(mag) Time Alt. Az. Time Alt. Az. Time Alt. Az.
22 Jul 6.9 04:20:30 10° ENE 04:23:30 14° E 04:26:29 10° SE visible
23 Jul 6.9 04:19:07 10° ENE 04:21:57 14° E 04:24:46 10° ESE visible
24 Jul 6.9 04:17:45 10° ENE 04:20:24 13° E 04:23:02 10° ESE visible
25 Jul 6.9 04:16:24 10° ENE 04:18:51 13° E 04:21:17 10° ESE visible
26 Jul 7.0 04:15:04 10° ENE 04:17:17 12° E 04:19:30 10° ESE visible
27 Jul 7.0 04:13:46 10° ENE 04:15:44 12° E 04:17:42 10° ESE visible
28 Jul 7.1 04:12:30 10° ENE 04:14:11 11° E 04:15:51 10° ESE visible
29 Jul 7.1 04:11:20 10° ENE 04:12:38 11° E 04:13:55 10° ESE visible
30 Jul 7.2 04:10:19 10° E 04:11:04 10° E 04:11:49 10° E visible
